LiveATC.Net - Listen to live air traffic control over the Internet!


ICAO: RCTP  IATA: TPE   Airport: Taiwan Taoyuan International Airport
City: Taipei
Country: Taiwan   Continent: Asia
RCTP METAR Weather: RCTP 250451Z 31003KT 250V340 1500 +RA SCT004 BKN006 BKN012 18/17 Q1017 NOSIG RMK A3005
RCTP Flight Activity (FlightAware)

RCTP Approach
Feed Status: DOWN
Last heard on: 2019-03-24 21:00:03 (0 days 8 hours 2 minutes ago)
RCTP Approach Audio Archives
FacilityFrequency
Emergency/Guard121.500
Taipei Approach125.100
Taipei Approach125.600
Taipei Approach128.500

RCTP Tower
Feed Status: DOWN
Last heard on: 2019-03-24 21:00:03 (0 days 8 hours 2 minutes ago)
RCTP Tower Audio Archives
FacilityFrequency
Taipei Tower118.700

NOTICE

Unauthorized use prohibited. See LiveATC.net Terms of Service


Find LiveATC Audio Streams


Airport/ARTCC Code

Frequency Search
(e.g., 124.400, 128.75)
Site-wide search
 


Browse LiveATC Feeds
Top 50 LiveATC Feeds
LiveATC Feed Map
Bad Weather Areas

LiveATC FAQ
Offer LiveATC feed
Contact LiveATC.net
Press Inquiries

LiveATC on iPhone
LiveATC on Android

Windows Phone
Windows 8/10

LiveATC Mobile
(Mobile browser)

ATC Audio Archives
Interesting Recordings

LiveATC Forums


Home Page
About LiveATC.net
Make a Donation
Terms of Use
Privacy Policy

Canadian Air Freqs

AIRMETs/SIGMETs

FAA Airport Status
Nat'l Airspace Status
Arrival Demand Charts


Server Software By:
Icecast.org
Liquidsoap